NOAA 16 DEB, 41277

Orbit data source: Space-Track

NOAA 16 DEB, 41277 is space debris in SSO originally from a launch on Thu, 21 Sep 2000 UTC launched from the Air Force Western Test Range (AFWTR). Debris objects in space refer to the collection of defunct objects orbiting the Earth. Examples of debris include non-operational satellites, rocket bodies, and fragments generated from explosions, collisions, or faulty payload assembly.

Loading next visibility...
Identifier
41277, 2000-055GD
Orbit
SSO
Country
Flag of USUS
Related business
Manufacturer
Unknown
Mission
Spacecraft
Bus & Motor
Unknown
Mass
Unknown
Launch date (UTC)
2000-09-21 (25 years ago)
Launch vehicle
Unknown
Launch site
Air Force Western Test Range (AFWTR)
Object type
Payload
Rocket body
Debris
Shape & HBR
Unknown shape, 0.1 m
Radar Cross Section
Small (<0.1 m²)

Expand to show TLE details & history
Last TLE update: 1 day ago

TLE from 1 day ago
0 NOAA 16 DEB
1 41277U 00055GD  26035.36275529  .00008906  00000-0  22313-2 0  9992
2 41277  98.9849 236.1052 0031708 165.5154 194.6955 14.51343949527203
Epoch: 2026-02-04T08:42Z
TLE epoch observation values (Epoch: 2026-02-04T08:42:22.057Z)
Latitude
0.00001°
Longitude
-29.01712°
Altitude
745.994 km
Speed
7.47 km/s
True Right ascension
15h 44m 25s
True Declination
0° 00' 00"
Sunlit
Object was in daylight at epoch
Visualization orbit readout
Latitude
Unknown
Longitude
Unknown
Altitude
Unknown
Speed
Unknown
Apparent Right ascension
Unknown
Apparent Declination
Unknown
Sunlit
N/A
Visualization observer readout
Local Sidereal Time
19:30:52
Azimuth
Unknown
Elevation
Unknown
Doppler factor
Unknown
Orbital elements
Apogee altitude
740.894 km
Perigee altitude
695.891 km
Semi-major axis
7,096.53 km
Eccentricity
0.00317
Inclination
98.9849°
RAAN
236.1052°
Arg. of periapsis
165.5154°
True anomaly
194.60368°
Mean anomaly
194.6955°
Eccentric anomaly
194.64955°
Mean motion
3.63056 °/min
Orbital period
99.16 mins
BSTAR
0.0022313
Loading maneuver chart data...
Computing Atmospheric mass density...
Loading historical data...
Loading historical data...
Loading historical data...
Loading historical data...
Loading historical data...
Loading historical data...
Loading historical data...

Documentation

Showing up to 5 results
|